Flag Weather past 2 weeks in Kashgar, Xinjiang, China

Now
32 °F

Clear.


Feels Like: 25 °F
Forecast: 32 / 42 °F
Wind: 8 mph from Northwest

Location: Kashi Airport

Current Time: Nov 23, 2014 at 5:35:02 AM

Latest Report: Nov 23, 2014 at 5:00 AM


Visibility: 10 mi

Pressure: 30.21 "Hg

Humidity: 51%

Dew point: 16 °F

Location of KashgarLocation

Historic Weather in Kashgar — Graph

°F

Kashgar temperature yesterday

Maximum temperature yesterday: 46 °F (at 5:00 PM)
Minimum temperature yesterday: 34 °F (at 7:00 AM)
Average temperature yesterday: 40 °F

Past Weeks' High & Low Weather Summary

 TemperatureHumidityPressure
High52 °F (Nov 8, 3:00 PM)87% (Nov 10, 9:00 AM)30.42 "Hg (Nov 10, 9:00 AM)
Low28 °F (Nov 13, 10:00 AM)9% (Nov 9, 3:00 PM)30.01 "Hg (Nov 8, 4:00 AM)
Average40 °F49%30.25 "Hg
* Reported Nov 8 4:00 AM — Nov 23 4:00 AM, Kashgar, Weather by CustomWeather, © 2014

Note: Actual official high and low records may vary slightly from our data, if they occured in-between our weather recording intervals... More about our weather records

Advertising

Kashgar weather history for previous 24 hours

 ConditionsComfort  
Time TempWeatherWind HumidityBarometerVisibility
4:00 AM
Nov 23
34 °FChilly.6 mph48%30.21 "HgN/A
3:00 AM36 °FChilly.6 mph44%30.21 "HgN/A
2:00 AM36 °FClear.8 mph44%30.21 "Hg10 mi
1:00 AM37 °FClear.6 mph41%30.21 "Hg10 mi
12:00 AM39 °FPassing clouds.3 mph39%30.21 "HgN/A
11:00 PM
Nov 22
39 °FPassing clouds.3 mph36%30.21 "HgN/A
10:00 PM41 °FPassing clouds.3 mph36%30.18 "HgN/A
9:00 PM41 °FClear.6 mph39%30.18 "Hg10 mi
8:00 PM43 °FClear.3 mph34%30.15 "Hg10 mi
7:00 PM45 °FSunny.6 mph31%30.15 "Hg10 mi
6:00 PM46 °FPassing clouds.6 mph29%30.12 "HgN/A
5:00 PM46 °FSunny.3 mph29%30.12 "Hg10 mi
4:00 PM45 °FSunny.3 mph31%30.15 "Hg10 mi
3:00 PM43 °FPassing clouds.6 mph34%30.18 "HgN/A
2:00 PM43 °FPassing clouds.6 mph34%30.21 "HgN/A
1:00 PM41 °FScattered clouds.6 mph36%30.21 "HgN/A
12:00 PM39 °FScattered clouds.6 mph39%30.21 "HgN/A
11:00 AM36 °FScattered clouds.6 mph44%30.21 "HgN/A
10:00 AM34 °FScattered clouds.6 mph51%30.18 "HgN/A
9:00 AM34 °FPassing clouds.3 mph48%30.15 "HgN/A
8:00 AM34 °FPassing clouds.3 mph48%30.15 "HgN/A
7:00 AM34 °FPassing clouds.3 mph51%30.15 "HgN/A
6:00 AM36 °FPassing clouds.3 mph48%30.15 "HgN/A
5:00 AM37 °FPassing clouds.6 mph41%30.15 "HgN/A
Weather by CustomWeather, © 2014

See weather overviewHow to use our weather pages